Location: Berlin
(42.3812°N, 71.6370°W)
Time: 12:45:10
(UTC+00:00)

Cosmos 1943 - Pass Details

Date: 23 February 2026
Orbit: 830 x 850 km, 71.0° (Epoch: 8 March)

Event Time Altitude Azimuth Distance (km) Brightness Sun altitude
Rises 00:11:44 0° 331° (NNW) 3,422 6.8 -19.9°
Reaches altitude 10° 00:14:15 10° 326° (NW) 2,481 6.1 -20.3°
Maximum altitude 00:19:45 51° 252° (WSW) 1,052 4.0 -21.4°
Drops below altitude 10° 00:25:12 10° 177° (S) 2,456 5.5 -22.4°
Sets 00:27:40 0° 173° (S) 3,383 6.2 -22.8°
